"Pseudo-MPEC" for P21DGEh

Created 2023 Mar 27 21:22:18 UT using Find_Orb

Click here for an explanation of pseudo-MPECs

 
 Astrometry: 
     P21DGEh* C2023 03 19cwUqOxAstrometry@I.opYL4Jredacted;(7-yjaV/)DblFs(/K^F52
     P21DGEh  C2023 03 19[\UIDJt#vbN$Be2Bclick/Mx0w[#C.+RYig4%C]#m1'DN/HpN48^F52
     P21DGEh  C2023 03 19;kVLhkO1Z=Y$+m](+aupB?DQB;here%V-=rxNxf?MQ?aIy?.F#6QF52
     P21DGEh 3C2023 03 221H`+FkMforap]oh/m-4[4?!PhTovTL2`Dx.*).u0pFm?4Wf*deS@T14
     P21DGEh 3C2023 03 22@)bNx_)%KiIIQ.,_)/)dNquo!_oA8iauRjtksSfG0L`nCpQaxI\mT14
     P21DGEh 3C2023 03 22$A=E4`-clw]]Jj@m@gWFM%iwWPvZ2C^.:*v!k_mBw+Fg_f4%Sl%ZT14
     P21DGEh 3C2023 03 22KoX(y.2+!tF_JGP/nr`S(8*q7bwK4F]pEk3Wwh+wMUx#?lOYma8QT14
     P21DGEh 3C2023 03 26$dB@amT-+%RvldM4IJa%HxomWo:?akwKg=f4rs?QCDCWmHrLJjJsT14
     P21DGEh 3C2023 03 26]\BQU*BR/covwAI=LO3oMVAXRm]BrVY.y0c],olodBm`ld2uw\I-T14
     P21DGEh 3C2023 03 26DfokexplanationI7=YKKX[hoh]7^*b*nNZE0]SM'svrBg6U8;4tT14

Station data:
(F52) Pan-STARRS 2, Haleakala  (N20.707382 W156.255910)  US/Hawaii.
   Observers J. Bulger, T. Dukes, T. Lowe, A. Schultz, M. Willman. Measurers
   K. Chambers, S. Chastel, T. de Boer, L. Denneau, J. Fairlamb, H.
   Flewelling, M. Huber, C.-C. Lin, E. Magnier, Y. Ramanjooloo, R. Wainscoat,
   R. Weryk. 1.8-m Ritchey-Chrétien + CCD.
(T14) Mauna Kea-UH/Tholen NEO Follow-Up (CFHT)  (N19.825252 W155.468876)
   US/Hawaii. 3.6-m Canada-France-Hawaii Telescope.

Orbital elements:  P21DGEh
   Perihelion 2023 Mar 17.47898 +/- 0.0355 TT = 11:29:43 (JD 2460020.97898)
Epoch 2023 Mar 26.0 TT = JDT 2460029.5   Earth MOID: 0.2076      AutoNEOCP
M   3.03935069 +/- 0.0038           (J2000 ecliptic)
n   0.35668846 +/- 0.00128          Peri.   41.28280 +/- 0.06
a   1.96914034 +/- 0.00473          Node   136.55877 +/- 0.034
e   0.3938845 +/- 0.0012            Incl.    4.95902 +/- 0.013
P   2.76                   H 24.67  G  0.15   U  8.3
q 1.19352631 +/- 0.000504    Q 2.74475437 +/- 0.00895
From 10 observations 2023 Mar. 19-26; mean residual 0".08
Residuals in arcseconds: 
230319 F52  .01-  .15-    230322 T14  .00   .03+    230326 T14  .02-  .02-    
230319 F52  .09+  .09-    230322 T14  .00   .03-    230326 T14  .04+  .02-    
230319 F52  .08-  .25+    230322 T14  .01+  .02+    
230322 T14  .00   .02-    230326 T14  .02-  .05+    

Ephemerides (geocentric):
Date (UTC) HH   RA             Dec           delta  r     elong  mag " sig PA
---- --------  ------------   ------------  ------ ------ -----  --- --------
2023 03 27 21  13 08 11.613   +16 40 52.32  .21313 1.1979 157.9 22.7 .251 108
2023 03 27 22  13 08 15.755   +16 41 02.47  .21316 1.1980 157.9 22.7 .257 109
2023 03 27 23  13 08 19.893   +16 41 12.55  .21319 1.1980 157.8 22.7 .264 109
2023 03 28 00  13 08 24.027   +16 41 22.55  .21323 1.1980 157.8 22.7 .270 109
2023 03 28 01  13 08 28.157   +16 41 32.47  .21326 1.1981 157.8 22.7 .277 110
2023 03 28 02  13 08 32.284   +16 41 42.31  .21329 1.1981 157.8 22.7 .283 110
2023 03 28 03  13 08 36.406   +16 41 52.08  .21333 1.1981 157.8 22.7 .290 110
2023 03 28 04  13 08 40.525   +16 42 01.76  .21336 1.1982 157.8 22.7 .297 111
2023 03 28 05  13 08 44.641   +16 42 11.37  .21340 1.1982 157.8 22.7 .303 111
2023 03 28 06  13 08 48.752   +16 42 20.90  .21343 1.1983 157.8 22.7 .310 111
2023 03 28 07  13 08 52.859   +16 42 30.35  .21347 1.1983 157.8 22.7 .317 112
2023 03 28 08  13 08 56.963   +16 42 39.72  .21350 1.1983 157.8 22.7 .324 112
2023 03 28 09  13 09 01.063   +16 42 49.01  .21354 1.1984 157.8 22.7 .331 112
2023 03 28 10  13 09 05.159   +16 42 58.22  .21357 1.1984 157.8 22.7 .339 112
2023 03 28 11  13 09 09.251   +16 43 07.36  .21361 1.1984 157.8 22.7 .346 113
2023 03 28 12  13 09 13.340   +16 43 16.41  .21364 1.1985 157.8 22.7 .353 113
2023 03 28 13  13 09 17.424   +16 43 25.39  .21368 1.1985 157.8 22.7 .360 113
2023 03 28 14  13 09 21.505   +16 43 34.29  .21371 1.1986 157.7 22.7 .368 113
2023 03 28 15  13 09 25.582   +16 43 43.11  .21375 1.1986 157.7 22.7 .375 114
2023 03 28 16  13 09 29.655   +16 43 51.85  .21378 1.1986 157.7 22.7 .383 114
2023 03 28 17  13 09 33.725   +16 44 00.51  .21382 1.1987 157.7 22.7 .390 114
2023 03 28 18  13 09 37.791   +16 44 09.09  .21386 1.1987 157.7 22.7 .398 114
2023 03 28 19  13 09 41.852   +16 44 17.59  .21389 1.1987 157.7 22.7 .406 115
2023 03 28 20  13 09 45.910   +16 44 26.01  .21393 1.1988 157.7 22.7 .413 115
2023 03 28 21  13 09 49.965   +16 44 34.36  .21397 1.1988 157.7 22.7 .421 115
2023 03 28 22  13 09 54.015   +16 44 42.63  .21400 1.1989 157.7 22.7 .429 115
2023 03 28 23  13 09 58.062   +16 44 50.81  .21404 1.1989 157.7 22.7 .437 116
2023 03 29 00  13 10 02.104   +16 44 58.92  .21408 1.1989 157.7 22.7 .445 116
2023 03 29 01  13 10 06.143   +16 45 06.95  .21412 1.1990 157.7 22.7 .453 116
2023 03 29 02  13 10 10.179   +16 45 14.90  .21415 1.1990 157.7 22.7 .461 116
2023 03 29 03  13 10 14.210   +16 45 22.76  .21419 1.1991 157.7 22.7 .470 116
2023 03 29 04  13 10 18.237   +16 45 30.56  .21423 1.1991 157.6 22.7 .478 117
2023 03 29 05  13 10 22.261   +16 45 38.27  .21427 1.1991 157.6 22.7 .486 117
2023 03 29 06  13 10 26.281   +16 45 45.90  .21431 1.1992 157.6 22.7 .495 117
2023 03 29 07  13 10 30.297   +16 45 53.45  .21434 1.1992 157.6 22.7 .503 117
2023 03 29 08  13 10 34.310   +16 46 00.92  .21438 1.1992 157.6 22.7 .512 117
2023 03 29 09  13 10 38.318   +16 46 08.32  .21442 1.1993 157.6 22.7 .520 117
2023 03 29 10  13 10 42.323   +16 46 15.63  .21446 1.1993 157.6 22.7 .529 118
2023 03 29 11  13 10 46.324   +16 46 22.86  .21450 1.1994 157.6 22.7 .538 118
2023 03 29 12  13 10 50.321   +16 46 30.02  .21454 1.1994 157.6 22.7 .547 118
2023 03 29 13  13 10 54.315   +16 46 37.09  .21458 1.1995 157.6 22.7 .555 118
2023 03 29 14  13 10 58.304   +16 46 44.09  .21462 1.1995 157.6 22.7 .564 118
2023 03 29 15  13 11 02.290   +16 46 51.01  .21466 1.1995 157.6 22.7 .573 118
2023 03 29 16  13 11 06.272   +16 46 57.84  .21470 1.1996 157.6 22.7 .582 119
2023 03 29 17  13 11 10.250   +16 47 04.60  .21474 1.1996 157.6 22.7 .591 119
2023 03 29 18  13 11 14.225   +16 47 11.28  .21478 1.1997 157.6 22.7 .601 119
2023 03 29 19  13 11 18.195   +16 47 17.88  .21482 1.1997 157.5 22.7 .610 119
2023 03 29 20  13 11 22.162   +16 47 24.39  .21486 1.1997 157.5 22.7 .619 119